Location: Poughquag
(41.6090°N, 73.6820°W)
Time: 08:15:08
(UTC-05:00)

Altair - Pass Details

Date: 05 December 2023
Orbit: 1501 x 1682 km, 47.2° (Epoch: 02 March)

Event Time Altitude Azimuth Distance (km) Brightness Sun altitude
Rises 05:55:45 0° 193° (SSW) 4,870 10.2 -12.8°
Reaches altitude 10° 05:59:35 10° 181° (S) 3,862 9.8 -12.1°
Maximum altitude 06:07:14 27° 130° (SE) 2,732 9.7 -10.7°
Drops below altitude 10° 06:14:41 10° 78° (ENE) 3,761 10.5 -9.4°
Sets 06:18:19 0° 66° (ENE) 4,721 10.8 -8.8°
